Tracking 29892 objects as of 21-Nov-2024
HD Live streaming from Space Station
objects crossing your sky now

STARLINK-6307

Track STARLINK-6307 now!
10-day predictions
STARLINK-6307 is classified as:


NORAD ID: 56529
Int'l Code: 2023-065AC
Perigee: 565.2 km
Apogee: 567.2 km
Inclination: 43.0 °
Period: 95.8 minutes
Semi major axis: 6937 km
RCS: Unknown
Launch date: May 14, 2023
Source: United States (US)
Launch site: AIR FORCE EASTERN TEST RANGE (AFETR)
Your satellite tracking list
Your tracking list is empty




NASA's NSSDC Master Catalog

Two Line Element Set (TLE):
1 56529U 23065AC  24325.91829830 -.00000220  00000-0 -12164-5 0  9994
2 56529  43.0055 251.9757 0001447 271.2609  88.8067 15.02534565 84729
Source of the keplerian elements: AFSPC